Location: Alafon
(8.4500°N, 4.2333°E)
Time: 07:46:15
(UTC+00:00)

A-11 Canister half - Pass Details

Date: 09 August 2021
Orbit: 1515 x 1685 km, 47.2° (Epoch: 21 September)

Event Time Altitude Azimuth Distance (km) Brightness Sun altitude
Rises 09:29:47 0° 179° (S) 4,650 11.4 55.3°
Reaches altitude 10° 09:35:36 10° 151° (SSE) 3,671 11.2 56.7°
Maximum altitude 09:38:51 12° 129° (SE) 3,505 11.3 57.5°
Drops below altitude 10° 09:42:07 10° 108° (ESE) 3,689 11.6 58.3°
Sets 09:47:55 0° 80° (E) 4,700 12.0 59.7°
